#timestamp,LO_Frequency,Hit,StdDev 
1620964815.6,286047001.6,N
1620964835.5,286046999.9,N
1620964855.3,286047000.2,N
1620964875.1,286047002.6,N
1620964895.9,286047002.6,N
1620964915.7,286047000.8,N
1620964935.5,286047002.3,N
1620964955.4,286047001.7,N
1620964975.2,286047004.0,N
1620964995.1,286047002.5,N
1620964996.0,286047002.5,N
1620965015.8,286047000.1,N
1620965035.6,286047002.2,N
1620965055.5,286047002.8,N
1620965075.3,286047004.0,N
1620965095.1,286047001.7,N
1620965115.9,286047002.9,N
1620965135.7,286047005.6,Y
1620965155.6,286047000.3,P
1620965175.4,286046998.4,N
1620965195.2,286047000.8,N
1620965215.1,286046998.9,N
1620965216.0,286046998.9,N
1620965235.8,286046998.6,N
1620965255.7,286047002.3,N
1620965275.5,286047002.1,N
1620965295.3,286046998.5,N
1620965315.2,286046999.7,N
1620965335.9,286047002.5,N
1620965355.7,286047001.8,N
1620965375.6,286047002.4,N
1620965395.4,286047001.7,N
1620965415.3,286047003.7,N
1620965435.1,286047005.3,Y
1620965436.0,286047005.3,P
1620965455.8,286047003.2,N
1620965475.7,286047003.4,N
1620965495.5,286047003.2,N
1620965515.3,286047001.3,N
1620965535.2,286047001.7,N
1620965555.0,286047001.4,N
1620965555.9,286047001.4,N
1620965575.8,286047002.1,N
1620965595.6,286047004.0,Y
1620965615.4,286047000.8,P
1620965635.3,286046996.8,P
1620965655.1,286046998.3,N
1620965675.8,286046999.6,N
1620965695.7,286047000.7,N
1620965715.5,286046999.2,N
1620965735.4,286046995.4,N
1620965755.2,286046993.5,Y
1620965775.0,286046993.4,P
1620965775.9,286046993.4,N
1620965795.8,286046993.8,N
1620965815.6,286046994.8,N
1620965835.5,286046994.5,N
1620965855.3,286046993.5,Y
1620965875.1,286046998.1,P
1620965895.9,286047001.9,N
1620965915.7,286047001.3,N
1620965935.6,286046999.8,N
1620965955.4,286047002.5,N
1620965975.2,286047003.4,N
1620965995.1,286047004.1,N
1620965996.0,286047004.1,N
1620966015.8,286047000.0,N
1620966035.6,286047000.4,N
1620966055.5,286047001.7,N
1620966075.3,286047003.9,N
1620966095.2,286047001.8,N
1620966115.9,286047000.5,N
1620966135.7,286047002.8,N
1620966155.6,286047000.8,N
1620966175.4,286047002.7,N
1620966195.3,286046999.7,N
1620966215.1,286047002.1,N
1620966216.0,286047002.1,N
1620966235.8,286047005.8,N
1620966255.7,286047005.7,N
1620966275.5,286047003.5,N
1620966295.3,286047005.5,N
1620966315.2,286047005.6,N
1620966335.0,286047007.3,N
1620966335.9,286047007.3,N
1620966355.8,286047002.9,N
1620966375.6,286047004.2,N
1620966395.4,286047001.6,N
1620966415.3,286047004.3,N
1620966435.1,286047001.6,N
1620966455.9,286047005.3,N
1620966475.7,286047006.0,N
1620966495.5,286047004.2,N
1620966515.4,286047001.8,N
1620966535.2,286047001.3,N
1620966555.0,286047004.1,N
1620966555.9,286047004.1,N
1620966575.8,286047004.9,N
1620966595.6,286047003.0,N
1620966615.5,286047004.2,N
1620966635.3,286047005.4,N
1620966655.1,286047005.8,N
1620966675.9,286047005.6,N
1620966695.7,286047005.8,Y
1620966715.6,286047000.1,P
1620966735.4,286047002.1,N
1620966755.2,286046999.9,N
1620966775.1,286047002.3,N
1620966776.0,286047002.3,N
1620966795.9,286047000.6,N
1620966815.7,286047002.7,N
1620966835.6,286047000.5,N
1620966855.4,286047000.1,N
1620966875.2,286046997.4,N
1620966895.1,286046993.8,Y
1620966896.0,286046993.8,P
1620966915.8,286046995.1,N
1620966935.6,286046996.5,N
1620966955.5,286046996.6,N
1620966975.3,286046999.6,N
1620966995.2,286046999.6,N
1620967015.9,286046998.9,N
1620967035.7,286046998.1,N
1620967055.6,286046996.6,N
1620967075.4,286046996.2,N
1620967095.3,286046996.2,N
1620967115.1,286046996.3,N
1620967116.0,286046996.3,N
1620967135.8,286046997.3,N
1620967155.7,286046998.8,N
1620967175.5,286047000.8,N
1620967195.3,286047002.4,N
1620967215.2,286047002.5,N
1620967235.0,286047002.7,N
1620967235.9,286047002.7,N
1620967255.8,286046998.1,N
1620967275.6,286047000.9,N
1620967295.4,286046998.6,N
1620967315.3,286046998.7,N
1620967335.1,286047000.5,N
1620967355.8,286046996.7,N
1620967375.7,286046997.5,N
1620967395.5,286047000.7,N
1620967415.4,286046998.4,N
1620967435.2,286047000.4,N
1620967455.0,286046998.1,N
1620967455.9,286046998.1,N
1620967475.8,286046997.2,N
1620967495.6,286046995.3,N
1620967515.5,286046997.4,N
1620967535.3,286046997.2,N
1620967555.1,286046998.5,N
1620967575.9,286047000.5,N
1620967595.7,286047002.8,N
1620967615.5,286047000.3,N
1620967635.4,286047000.1,N
1620967655.2,286046998.5,N
1620967675.1,286046998.8,N
1620967676.0,286046998.8,N
1620967695.8,286046998.1,N
1620967715.6,286047000.8,N
1620967735.5,286046998.7,N
1620967755.3,286046998.9,N
1620967775.1,286046999.9,N
1620967795.9,286046999.9,N
1620967815.7,286047001.5,N
1620967835.6,286047000.6,N
1620967855.4,286046998.9,N
1620967875.2,286047000.7,N
1620967895.1,286047000.9,N
1620967896.0,286047000.9,N
1620967915.8,286046996.5,N
1620967935.6,286046995.4,N
1620967955.5,286046996.3,N
1620967975.3,286046998.8,N
1620967995.2,286046999.1,N
1620968015.9,286046999.0,N
1620968035.7,286047000.1,N
1620968055.6,286047002.3,N
1620968075.4,286047002.4,N
1620968095.3,286046999.8,N
1620968115.1,286046999.8,N
1620968116.0,286046999.8,N
1620968135.8,286046998.8,N
1620968155.7,286046996.7,N
1620968175.5,286046997.7,N
1620968195.3,286046997.7,N
1620968215.2,286046999.4,N
1620968235.0,286046998.9,N
1620968235.9,286046998.9,N
1620968255.8,286046999.0,N
1620968275.6,286046999.3,N
1620968295.4,286046999.4,N
1620968315.3,286046998.3,N
1620968335.1,286046999.4,N
1620968355.8,286047000.3,N
1620968375.7,286047000.6,N
1620968395.5,286046998.8,N
